This demonstration page uses our WeatherBlox Daily Observations layout. Learn more.

41.55636, -103.73856

Hourly Observations for April 30, 2019

Temp ( °F °C ) Dew Point ( °F °C ) Humidity (%) Winds ( mph kmh ) Pressure ( in mb ) Visibility ( mi km ) Precip ( " mm )
12:58 am 00:58 Cloudy with Light Snow 29 -1.9 27 -2.9 93 93 E 6 9 30.24 1024 2.5 4.02335 0.01 0.254
1:58 am 01:58 Cloudy with Light Snow 29 -1.6 28 -2.5 94 94 SE 8 13 30.23 1024 6 9.65604 0.01 0.254
2:58 am 02:58 Cloudy with Light Snow 29 -1.7 27 -2.7 93 93 SE 13 20 30.23 1024 2 3.21868 0.01 0.254
3:58 am 03:58 Cloudy with Light Snow 29 -1.6 28 -2.4 94 94 SE 10 17 30.22 1024 0.75 1.207005 0.01 0.254
4:58 am 04:58 Mostly Cloudy with Scattered Snow Showers 29 -1.7 28 -2.5 94 94 SE 12 19 30.2 1023 1 1.60934 0.02 0.508
5:58 am 05:58 Mostly Cloudy with Scattered Snow Showers 29 -1.5 28 -2.2 95 95 ESE 14 22 30.14 1021 2.75 4.425685 0.01 0.254
6:58 am 06:58 Cloudy with Light Snow 28 -2.1 27 -2.9 94 94 ESE 12 19 30.14 1021 2.75 4.425685 0 0
7:58 am 07:58 Mostly Cloudy with Snow 28 -2.3 26 -3.1 94 94 SE 16 26 30.12 1020 3 4.82802 0.01 0.254
8:58 am 08:58 Mostly Cloudy with Heavy Snow 27 -2.7 26 -3.5 94 94 SE 23 37 30.1 1019 0.25 0.402335 0 0
9:58 am 09:58 Mostly Cloudy with Scattered Snow Showers 27 -3 25 -3.9 94 94 SSE 23 37 30.08 1019 8 12.87472 0 0
10:58 am 10:58 Windy with Snow Likely 27 -3 25 -3.7 95 95 SSE 25 41 30.04 1017 4 6.43736 0 0
11:58 am 11:58 Mostly Cloudy with Freezing Fog 27 -2.9 26 -3.6 95 95 SSE 25 41 30.02 1017 0.25 0.402335 0 0
12:58 pm 12:58 Mostly Cloudy with Scattered Snow Showers 27 -2.7 26 -3.4 95 95 SSE 30 48 29.97 1015 0.25 0.402335 0 0
1:58 pm 13:58 Windy with Snow Showers Likely 27 -2.6 26 -3.2 96 96 SSE 21 33 29.99 1016 0.5 0.80467 0 0
2:58 pm 14:58 Windy with Snow Showers Likely 28 -2.3 27 -3 95 95 SSE 21 33 29.99 1016 0.5 0.80467 0 0
3:58 pm 15:58 Windy with Snow Showers Likely 28 -2.1 27 -2.7 96 96 SSE 20 31 29.99 1016 0.75 1.207005 0 0
4:58 pm 16:58 Mostly Cloudy with Light Snow Showers 29 -1.9 27 -2.6 95 95 SE 17 28 30.01 1016 0.25 0.402335 0.01 0.254
5:58 pm 17:58 Mostly Cloudy with Light Freezing Rain 29 -1.6 28 -2.1 96 96 SSE 14 22 30.01 1016 1 1.60934 0.03 0.762
6:58 pm 18:58 Mostly Cloudy with Light Drizzle 30 -1 29 -1.7 95 95 SSE 15 24 29.99 1016 5 8.0467 0.02 0.508
7:58 pm 19:58 Cloudy with Mist and Fog 30 -0.9 29 -1.5 96 96 SE 9 15 30 1016 6 9.65604 0 0
8:58 pm 20:58 Cloudy with Light Snow Showers 31 -0.8 30 -1.3 96 96 SE 8 13 30.03 1017 4 6.43736 0.01 0.254
9:58 pm 21:58 Mostly Cloudy with Scattered Snow Showers 31 -0.5 30 -1.2 95 95 ESE 6 9 30 1016 4 6.43736 0.02 0.508
10:58 pm 22:58 Mostly Cloudy with Light Rain/Snow 32 -0.1 31 -0.8 95 95 E 6 9 30.01 1016 10 16.0934 0 0
11:56 pm 23:56 Mostly Cloudy with Light Rain/Snow 32 -0.2 30 -1.1 94 94 NE 5 7 30.04 1017 8 12.87472 0 0

Powered by AerisWeather